[[{"header":{"parameterUnit":"m.s-1","parameterCategory":1,"la1":30.2991,"la2":30.254,"lo1":-89.0895,"lo2":-89.0444,"dy":0.0017,"dx":0.0017,"nx":28,"ny":28,"refTime":"2023-09-21T09:00:00:Z","depth":0,"parameterNumber":2,"parameterNumberName":"U-component_of_WINDS"},"data":[0,0,0,0,0,0,0,0,0,0,0,0,0,0,0,0,0,0,0,0,0,0,0,0,0,0,0,0,0,0,0,0,0,0,0,0,0,0,0,0,0,0,0,0,0,0,0,0,0,0,0,0,0,0,0,0,0,0,-3.0889,-3.0888,0,-3.0824,-3.0823,-3.0822,-3.073,-3.0729,-3.0727,-3.0726,-3.0659,-3.0659,-3.0659,0,0,0,0,0,0,0,0,0,0,0,0,0,-3.0936,-3.0936,-3.0889,-3.0888,-3.0887,-3.0824,-3.0823,-3.0822,-3.0731,-3.0729,-3.0727,-3.0725,-3.0659,-3.0659,-3.0659,0,0,0,0,0,0,0,0,0,0,0,0,0,-3.0898,-3.0936,-3.0889,-3.0834,-3.0828,-3.0824,-3.0823,-3.0822,-3.0731,-3.0729,-3.0726,-3.0724,-3.066,-3.0659,-3.0659,-3.0703,0,0,-3.0657,-3.0657,0,0,0,0,0,0,0,0,-3.09,-3.0896,-3.0843,-3.0838,-3.0831,-3.0783,-3.0815,-3.0782,-3.0732,-3.0768,-3.0726,-3.0723,-3.0702,-3.0698,-3.0691,-3.07,-3.0697,-3.0657,-3.0657,-3.0657,-3.0657,0,0,0,0,0,0,0,-3.0903,-3.0898,-3.0863,-3.0842,-3.0835,-3.0813,-3.0805,-3.0808,-3.0749,-3.0765,-3.0758,-3.0751,-3.0699,-3.0692,-3.0689,-3.0696,-3.0657,-3.0657,-3.0657,-3.0656,-3.074,-3.0743,0,0,0,0,0,0,-3.0914,-3.0901,-3.0865,-3.0861,-3.0861,-3.0814,-3.0805,-3.0801,-3.0749,-3.0739,-3.0753,-3.0747,-3.0694,-3.069,-3.0686,-3.0736,-3.0657,-3.0656,-3.0656,-3.0738,-3.0741,-3.0744,0,0,0,0,0,0,-3.0915,-3.0911,-3.0868,-3.0879,-3.0872,-3.0816,-3.0812,-3.0801,-3.0794,-3.074,-3.0729,-3.0757,-3.0692,-3.0687,-3.07,-3.0732,-3.0656,-3.0656,-3.0735,-3.0739,-3.0742,-3.0835,0,0,0,0,0,0,-3.0917,-3.0912,-3.0928,-3.088,-3.0872,-3.0882,-3.0814,-3.0801,-3.0793,-3.0784,-3.0741,-3.0731,-3.069,-3.0701,-3.07,-3.073,-3.0655,-3.0732,-3.0737,-3.0741,-3.0829,-3.0842,-3.0853,0,0,0,0,0,-3.0919,-3.0956,-3.0929,-3.0925,-3.089,-3.0884,-3.0879,-3.083,-3.0796,-3.0812,-3.0778,-3.0733,-3.0729,-3.0703,-3.0701,-3.0732,-3.0729,-3.0735,-3.0741,-3.0824,-3.0839,-3.0853,0,0,0,0,0,0,-3.1008,-3.0949,-3.0918,-3.0941,-3.0919,-3.0869,-3.0886,-3.0848,-3.0834,-3.0827,-3.0767,-3.0758,-3.0779,-3.0756,-3.0728,-3.0773,-3.0723,-3.0728,-3.0787,-3.0801,-3.0813,-3.0818,-3.0655,0,0,0,0,0,-3.1031,-3.103,-3.0978,-3.1004,-3.0994,-3.0943,-3.0938,-3.0903,-3.0877,-3.0867,-3.0834,-3.0811,-3.0805,-3.0802,-3.0793,-3.0826,-3.0816,-3.0846,-3.0858,-3.0868,-3.0874,-3.0892,-3.0905,-3.0762,-3.0762,-3.0762,0,0,-3.1077,-3.1044,-3.1048,-3.1021,-3.0999,-3.1002,-3.0935,-3.0939,-3.0941,-3.0867,-3.0878,-3.0854,-3.0824,-3.0848,-3.0857,-3.083,-3.0911,-3.0875,-3.0884,-3.0883,-3.0899,-3.0913,-3.0925,-3.0766,-3.0765,-3.0765,0,0,-3.1162,-3.1137,-3.1156,-3.1136,-3.1105,-3.1071,-3.1076,-3.1032,-3.1014,-3.1024,-3.0969,-3.097,-3.096,-3.0942,-3.0932,-3.1014,-3.0973,-3.1013,-3.1074,-3.1093,-3.1104,-3.1114,-3.1145,-3.1156,-3.1018,-3.1019,-3.1019,0,-3.1223,-3.1224,-3.1171,-3.118,-3.117,-3.1105,-3.1125,-3.1108,-3.1076,-3.1071,-3.1042,-3.103,-3.1005,-3.1025,-3.1046,-3.1039,-3.1044,-3.1017,-3.1107,-3.1116,-3.1124,-3.1153,-3.1165,-3.1024,-3.1023,-3.1023,-3.1022,0,-3.1302,-3.1303,-3.1323,-3.1294,-3.1287,-3.1301,-3.1252,-3.1251,-3.1217,-3.1187,-3.1199,-3.1168,-3.1153,-3.1155,-3.1121,-3.1171,-3.1156,-3.1118,-3.1065,-3.1144,-3.117,-3.118,-3.1031,-3.1029,-3.1028,-3.1027,0,0,-3.1439,-3.1383,-3.1391,-3.1378,-3.134,-3.134,-3.1353,-3.1339,-3.134,-3.1321,-3.133,-3.1325,-3.129,-3.1279,-3.1243,-3.1259,-3.1329,-3.1219,-3.1217,-3.1241,-3.1384,-3.1413,-3.1427,-3.1301,-3.1303,-3.1304,-3.1387,0,-3.1518,-3.1535,-3.149,-3.1519,-3.1521,-3.146,-3.1471,-3.145,-3.1423,-3.1421,-3.1391,-3.1389,-3.1342,-3.1335,-3.1348,-3.1317,-3.1356,-3.1311,-3.1311,-3.1311,-3.132,-3.144,-3.147,-3.1549,-3.1396,-3.1398,-3.1399,0,-3.1611,-3.1597,-3.1627,-3.159,-3.1589,-3.1599,-3.1584,-3.1583,-3.1558,-3.1537,-3.1526,-3.1485,-3.1496,-3.1446,-3.1462,-3.1432,-3.1429,-3.1414,-3.1416,-3.1414,-3.136,-3.1442,-3.1573,-3.1585,-3.1414,-3.1413,-3.1412,0,-3.171,-3.1699,-3.1716,-3.1707,-3.1663,-3.1673,-3.1655,-3.1628,-3.1623,-3.161,-3.1606,-3.1595,-3.1589,-3.1581,-3.1539,-3.1507,-3.156,-3.1507,-3.1544,-3.1546,-3.1558,-3.1558,-3.1691,-3.1556,-3.1556,-3.1556,-3.1555,0,-3.1803,-3.1824,-3.1761,-3.1771,-3.1794,-3.1742,-3.1766,-3.1742,-3.1719,-3.1725,-3.1672,-3.1679,-3.1622,-3.1623,-3.159,-3.1609,-3.1606,-3.1591,-3.1582,-3.1596,-3.1598,-3.1593,-3.1587,-3.1559,-3.1558,-3.1557,-3.1557,0,-3.1917,-3.1875,-3.189,-3.1848,-3.1839,-3.1857,-3.1822,-3.183,-3.1801,-3.1809,-3.1808,-3.1762,-3.1761,-3.1718,-3.1707,-3.1685,-3.1718,-3.1698,-3.1727,-3.1721,-3.1761,-3.1758,-3.1896,-3.1913,-3.1767,-3.1769,-3.177,0,-3.1979,-3.1994,-3.1954,-3.1954,-3.194,-3.194,-3.1936,-3.1886,-3.1884,-3.1859,-3.1871,-3.1866,-3.1859,-3.186,-3.1826,-3.1818,-3.1799,-3.1848,-3.1797,-3.1812,-3.1801,-3.1801,-3.1803,-3.1859,-3.186,-3.1862,-3.1863,0,-3.2094,-3.2073,-3.2068,-3.2057,-3.2053,-3.2042,-3.2028,-3.2031,-3.1977,-3.1978,-3.1976,-3.1971,-3.1961,-3.1957,-3.1944,-3.1927,-3.1887,-3.188,-3.1888,-3.1903,-3.1919,-3.1912,-3.1756,-3.1876,-3.1875,-3.1874,-3.1873,-3.1873,-3.2184,-3.2195,-3.217,-3.2167,-3.2151,-3.214,-3.2147,-3.2119,-3.2117,-3.2105,-3.2076,-3.208,-3.2058,-3.2036,-3.2022,-3.2025,-3.2001,-3.2013,-3.2016,-3.202,-3.2028,-3.1918,-3.2023,-3.2022,-3.2022,-3.2021,-3.2021,0,-3.2297,-3.2278,-3.2276,-3.2258,-3.2257,-3.222,-3.2203,-3.2204,-3.2208,-3.219,-3.2185,-3.2185,-3.2182,-3.2148,-3.2142,-3.2151,-3.2132,-3.2151,-3.215,-3.2147,-3.205,-3.2044,-3.2166,-3.2166,-3.2166,-3.2166,-3.2166,-3.2166,-3.2355,-3.2373,-3.235,-3.2361,-3.2342,-3.2345,-3.2339,-3.2329,-3.2315,-3.2317,-3.2314,-3.2292,-3.2269,-3.2261,-3.2257,-3.2247,-3.2248,-3.2272,-3.2257,-3.2167,-3.2153,-3.214,-3.2134,-3.2273,-3.2273,-3.2353,-3.2354,-3.2355]},{"header":{"parameterUnit":"m.s-1","parameterCategory":1,"la1":30.2991,"la2":30.254,"lo1":-89.0895,"lo2":-89.0444,"dy":0.0017,"dx":0.0017,"nx":28,"ny":28,"refTime":"2023-09-21T09:00:00:Z","depth":0,"parameterNumber":3,"parameterNumberName":"V-component_of_WINDS"},"data":[0,0,0,0,0,0,0,0,0,0,0,0,0,0,0,0,0,0,0,0,0,0,0,0,0,0,0,0,0,0,0,0,0,0,0,0,0,0,0,0,0,0,0,0,0,0,0,0,0,0,0,0,0,0,0,0,0,0,0.568,0.5679,0,0.5629,0.5629,0.5628,0.5629,0.563,0.5631,0.5632,0.5576,0.5574,0.5572,0,0,0,0,0,0,0,0,0,0,0,0,0,0.5773,0.5772,0.568,0.5679,0.5679,0.5629,0.5629,0.5628,0.5629,0.563,0.5631,0.5632,0.5576,0.5574,0.5571,0,0,0,0,0,0,0,0,0,0,0,0,0,0.5729,0.5771,0.568,0.5673,0.5672,0.5629,0.5629,0.5628,0.5629,0.563,0.5631,0.5632,0.5577,0.5574,0.5571,0.553,0,0,0.5561,0.556,0,0,0,0,0,0,0,0,0.5731,0.5725,0.5675,0.5674,0.5673,0.5637,0.5641,0.5595,0.5629,0.5645,0.5632,0.5633,0.5595,0.559,0.5578,0.5527,0.5525,0.5561,0.5559,0.5558,0.5557,0,0,0,0,0,0,0,0.5734,0.5727,0.566,0.5674,0.5673,0.5672,0.5666,0.5632,0.5615,0.5644,0.5644,0.5638,0.5594,0.5582,0.5577,0.5524,0.5561,0.5558,0.5556,0.5555,0.5434,0.5433,0,0,0,0,0,0,0.5739,0.573,0.5661,0.5658,0.5705,0.5669,0.5663,0.5647,0.5615,0.5611,0.5637,0.5639,0.5586,0.5581,0.5575,0.5523,0.5558,0.5555,0.5553,0.5436,0.5434,0.5433,0,0,0,0,0,0,0.5741,0.5733,0.5663,0.5694,0.5685,0.5666,0.5648,0.5646,0.5633,0.561,0.5607,0.5628,0.5587,0.558,0.5541,0.5521,0.5553,0.555,0.5437,0.5435,0.5433,0.5419,0,0,0,0,0,0,0.5744,0.5734,0.5719,0.5694,0.5684,0.5631,0.5647,0.5644,0.5628,0.5629,0.56,0.5596,0.5587,0.5546,0.5538,0.5517,0.5548,0.5439,0.5436,0.5434,0.5421,0.5417,0.5413,0,0,0,0,0,0.5747,0.5717,0.5718,0.571,0.5665,0.563,0.5624,0.5615,0.5626,0.561,0.5595,0.5597,0.5525,0.5542,0.5533,0.5511,0.544,0.5437,0.5434,0.5423,0.5418,0.5413,0,0,0,0,0,0,0.5739,0.5713,0.5715,0.5676,0.5655,0.563,0.561,0.5611,0.5586,0.5587,0.5577,0.557,0.5531,0.5517,0.5536,0.5468,0.5484,0.5479,0.5478,0.5473,0.5469,0.5472,0.5545,0,0,0,0,0,0.5733,0.5709,0.5687,0.5654,0.5644,0.5629,0.5613,0.5609,0.5586,0.5577,0.556,0.5537,0.5509,0.5491,0.5464,0.542,0.5412,0.54,0.5397,0.5393,0.5388,0.5361,0.5355,0.5423,0.5423,0.5423,0,0,0.572,0.5703,0.5687,0.5652,0.5636,0.5608,0.5621,0.5593,0.5571,0.5573,0.5534,0.5521,0.5495,0.5453,0.5433,0.544,0.5368,0.539,0.5387,0.5384,0.5358,0.5351,0.5345,0.5421,0.5422,0.5422,0,0,0.5681,0.5667,0.5636,0.562,0.5595,0.5585,0.5578,0.5553,0.5545,0.5507,0.5506,0.5481,0.5434,0.5414,0.5398,0.5351,0.535,0.5343,0.5321,0.5295,0.5289,0.5284,0.5264,0.5258,0.5339,0.5339,0.5339,0,0.5666,0.5627,0.5621,0.5591,0.5574,0.5576,0.5544,0.5528,0.5495,0.5483,0.5492,0.5431,0.5414,0.5366,0.5354,0.5342,0.5332,0.5345,0.5291,0.5286,0.5281,0.5262,0.5255,0.5337,0.5338,0.5338,0.5338,0,0.5609,0.5581,0.556,0.5529,0.551,0.548,0.5467,0.5449,0.5446,0.5435,0.5395,0.5374,0.5342,0.5331,0.5328,0.5282,0.5286,0.5293,0.5308,0.5274,0.5255,0.5248,0.5336,0.5336,0.5337,0.5337,0,0,0.5562,0.5528,0.552,0.5505,0.5478,0.5455,0.5424,0.5394,0.5377,0.5355,0.5326,0.5286,0.5292,0.5274,0.5268,0.5246,0.5206,0.5255,0.5254,0.5244,0.5151,0.5143,0.5135,0.5207,0.5206,0.5205,0.5152,0,0.5517,0.5463,0.5456,0.5407,0.538,0.5381,0.5354,0.5333,0.5322,0.5296,0.5283,0.5253,0.5265,0.5254,0.5232,0.5216,0.5187,0.522,0.5178,0.5177,0.5181,0.5126,0.5119,0.5069,0.5145,0.5144,0.5143,0,0.5458,0.5434,0.5382,0.5357,0.5346,0.5321,0.5292,0.5268,0.5244,0.5237,0.5217,0.5214,0.518,0.5198,0.5149,0.5172,0.5155,0.5144,0.5142,0.5135,0.5155,0.5114,0.5054,0.5045,0.5133,0.5133,0.5134,0,0.5424,0.538,0.5342,0.533,0.5301,0.5283,0.527,0.5247,0.5229,0.5203,0.519,0.5161,0.5144,0.512,0.5109,0.5124,0.506,0.5078,0.505,0.505,0.5034,0.5034,0.4966,0.5029,0.5029,0.5029,0.5029,0,0.5373,0.5341,0.5327,0.5303,0.5266,0.5259,0.5222,0.5209,0.5189,0.5161,0.5161,0.5135,0.5124,0.5095,0.5087,0.5045,0.5039,0.503,0.5027,0.5028,0.5028,0.5014,0.5015,0.5027,0.5027,0.5028,0.5028,0,0.5328,0.5318,0.5277,0.5253,0.5246,0.5219,0.5198,0.5174,0.5164,0.5129,0.512,0.5103,0.507,0.5057,0.5016,0.501,0.4961,0.4964,0.4969,0.4968,0.494,0.4941,0.4857,0.4844,0.4918,0.4918,0.4917,0,0.5295,0.527,0.5243,0.5225,0.5212,0.5183,0.5164,0.5156,0.5137,0.5107,0.5086,0.5053,0.5026,0.4972,0.4955,0.4923,0.4922,0.4895,0.4917,0.4917,0.4917,0.4917,0.4913,0.4889,0.4889,0.4888,0.4888,0,0.5235,0.5231,0.5205,0.5176,0.5154,0.5131,0.5109,0.5094,0.5082,0.5059,0.5026,0.5005,0.4963,0.4929,0.4896,0.4881,0.4881,0.4881,0.4872,0.4871,0.4874,0.4868,0.4954,0.4882,0.4883,0.4883,0.4883,0.4884,0.5193,0.5169,0.5147,0.5117,0.5099,0.5078,0.5054,0.504,0.5013,0.4978,0.4976,0.4938,0.4913,0.487,0.4853,0.4822,0.4829,0.4818,0.4814,0.481,0.4806,0.4882,0.4817,0.4817,0.4817,0.4817,0.4817,0,0.513,0.5115,0.5088,0.5057,0.5032,0.5037,0.5012,0.4991,0.4959,0.4936,0.491,0.487,0.4837,0.4817,0.4784,0.4763,0.4762,0.4754,0.4753,0.4749,0.4804,0.4813,0.4755,0.4755,0.4755,0.4755,0.4755,0.4755,0.5094,0.5054,0.5047,0.4998,0.4983,0.4948,0.4932,0.4912,0.4894,0.4849,0.4822,0.4811,0.4788,0.4753,0.4722,0.4717,0.4703,0.4694,0.4689,0.4739,0.4746,0.4752,0.476,0.4692,0.4692,0.4636,0.4636,0.4635]}]]